Погода в Новоселенгинске

Погода в Новоселенгинске : погода сейчас, прогноз погоды и архив. Всё, что Вы хотите узнать о погоде в Новоселенгинске!

Поиск расширенной информации на нашем сайте:

Другие новости

Новости СМИ2

Главная страница сайта

Новости сайта

03.07.2017

Напоминаем, что на нашем специализированном сайте Метеоцентр.Азия вы можете получить высокодетализированные автоматические прогнозы погоды по пунктам России, СНГ и мира в авиационном формате (включающие направление и скорость ветра, видимость, явления погоды, количество и форму облачности, нижнюю и верхнюю границу облачности).

Рекомендуем: купить хозтовары спб

Погода в Новоселенгинске - сегодня

Время (UTC), дата Ветер
(°,м/с) 
Видим.   Явления Облачность Т
(°С)
Тd
(°С)
f(%) Тe
(°С)
Pmin
(гПа)
dP
(гПа)
Po
(мм)
O2
(г/м3)
Тmin Tmax R s Состояние
почвы
15 19.08.17 020 (С) 50000 м    10/3 1000 м средняя 
[Sc|Ac As]
+17.5 +11.7 69 +23  1005.6  -1.1  707  265           
18 19.08.17 360 (С) 50000 м    10/1 600 м кучево-дожд., средняя 
[Cb cap|Ac As]
+16.7 +10.7 68 +20  1004.1  -1.6  706  266           
21 19.08.17 360 (С) 50000 м    10/1 600 м кучево-дожд., средняя 
[Cb cap|Ac As]
+15.8 +9.1 64 +17  1003.2  -1.1  705  267           
00 20.08.17 350 (С) 20000 м    10/4 1000 м средняя 
[Sc|Ac As]
+15.6 +9.4 67 +18  1002.5  -0.7  704  267  +15.5        сухая 
06 20.08.17 280 (З) 16000 м  слаб. ливневой дождь  10/4 600 м кучево-дожд., средняя 
[Cb cap|Ac As]
+16.3 +12.2 77 +24  1002.1  -0.3  704  265           
09 20.08.17 230 (ЮЗ) 20000 м  {ливн. осадки}  10/3 600 м кучево-дожд., средняя 
[Cb cap|Ac As]
+15.6 +12.7 83 +22  1002.7  0.5  705  266           
12 20.08.17 130 (ЮВ) 20000 м  {ливн. осадки}  10/3 1000 м средняя, верхняя 
[Sc|Ac trans|Ci sp]
+14.8 +11.3 80 +19  1002.8  -0.1  705  267    +16.6     
15 20.08.17 120 (ЮВ) 50000 м    10/0 средняя, верхняя 
[Ac trans|Ci fib]
+14.8 +11.1 78 +19  1003.3  0.4  705  267           
18 20.08.17 300 (СЗ) 50000 м    10/1 600 м кучево-дожд., средняя, верхняя 
[Cb cap|Ac trans|Ci fib]
+15.8 +9.2 65 +17  1003.6  0.5  705  267           
21 20.08.17 290 (З) 24000 м  дым  10/0 средняя, верхняя 
[Ac trans|Ci fib]
+14.8 +9 68 +16  1005  1.1  706  268           
00 21.08.17 290 (З) 19000 м  дым  10/3 1000 м средняя, верхняя 
[Sc|Ac trans|Ci fib]
+16.1 +9.4 64 +18  1006.2  1.4  707  267  +13.5        влажная 
03 21.08.17 300 (СЗ) 6{11}  20000 м    10/3 600 м кучево-дожд., средняя, верхняя 
[Cb cap|Ac trans|Ci fib]
+16.9 +9.7 62 +19  1007.8  1.6  708  267           
06 21.08.17 310 (СЗ) 9-13{14}  20000 м    8/4 1000 м кучево-дожд., средняя 
[Cb cap|Ac trans]
+16.1 +8.9 62 +16  1009.2  1.2  709  268           
12 21.08.17 340 (С) 7-10{11}  20000 м    6/3 1000 м верхняя 
[Sc|Ci sp]
+15.7 +6.9 56 +15  1010.9  710  269    +18       
15 21.08.17 310 (СЗ) 1{10}  50000 м    10/3 1000 м средняя, верхняя 
[Sc|Ac trans|Ci fib]
+14.3 +8.3 67 +16  1013.1  1.8  712  271           
18 21.08.17 330 (СЗ) 3{11}  50000 м    10/3 1000 м средняя 
[Sc|Ac As]
+14.4 +6.3 58 +15  1014.6  1.3  713  272           
21 21.08.17 310 (СЗ) 2{10}  50000 м    10/3 1000 м средняя, верхняя 
[Sc|Ac trans|Ci fib]
+12.6 +6 64 +13  1015.7  0.6  713  274           
00 22.08.17 340 (С) 20000 м    10/3 1000 м средняя 
[Sc|Ac As]
+12.7 +6.1 64 +12  1016.9  1.2  714  274  +12.4        влажная 
06 22.08.17 300 (СЗ) 3{10}  20000 м    10/1 1000 м верхняя 
[Sc|Cs]
+17.4 +4.4 42 +18  1015.2  -0.9  714  270           
12 22.08.17 340 (С) 5{10}  20000 м    10/3 1000 м средняя, верхняя 
[Sc|Ac lent|Ci fib]
+13.6 +5.5 58 +13  1015.3  713  273    +18.3       
15 22.08.17 360 (С) 50000 м    10/0 средняя, верхняя 
[Ac trans|Ci fib]
+12.4 +6.2 66 +12  1016.3  0.6  714  274           
18 22.08.17 050 (СВ) 50000 м    8/3 600 м кучево-дожд., верхняя 
[Cb cap|Ci fib]
+11.9 +6.6 70 +12  1015.8  -0.6  713  274           
21 22.08.17 тихо ()   50000 м    6/3 1000 м кучево-дожд., верхняя 
[Cb cap|Ci fib]
+10.4 +7.2 81 +10  1015.6  -0.5  713  275           
00 23.08.17 200 (Ю) 20000 м    10/4 1000 м средняя, верхняя 
[Sc|Ac trans|Ci fib]
+10.5 +7.4 81 +12  1015.1  -0.4  713  275  +8.8        сухая 
03 23.08.17 340 (С) 20000 м    10/3 1000 м средняя, верхняя 
[Sc|Ac trans|Ci fib]
+15.6 +5.4 51 +16  1013.3  -0.6  712  270           
Время (UTC), дата Ветер
(°,м/с) 
Видим.   Явления Облачность Т
(°С)
Тd
(°С)
f(%) Тe
(°С)
Pmin
(гПа)
dP
(гПа)
Po
(мм)
O2
(г/м3)
Тmin Tmax R s Состояние
почвы

Для получения пояснительной информации подведите курсор к названию столбца.

ПОГОДА в Новоселенгинске - архив

Всё, что Вы хотите узнать о погоде в Новоселенгинске - удобно и подробно!

Выберите нужную дату (начиная с 1 января 2015* года) и нажмите кнопку "Найти".
Будут отображены архивные сводки погоды по пункту Новоселенгинск, начиная с указанной даты.


Отображать данные в формате CSV (для использования в таблицах Excel)


Внимание! Наш архив погоды предназначен исключительно для личного некоммерческого использования в познавательных целях. Если Вам необходимы официальные справки о состоянии погоды (для производственных, юридических, коммерческих и т.п. целей), обращайтесь в органы Росгидромета.

*Примечание: данная дата относится к архиву по метеостанциям СССР (Россия, СНГ, Балтия).
Архив по метеостанциям Зарубежной Европы и Азии (кроме Китая) хранится 10 дней, по другим регионам земного шара (Китай, Африка, Америка, Австралия, Океания) - 1 день.

Новоселенгинск - район местоположения метеостанции


Название, широта, долгота, высота метеостанции:
Новоселенгинск 51.1°ш. 106.6°д. 556 м над ур. моря [Российская Федерация]

Дополнительная информация

В oтличие oт бoльшинства пoгoдных сайтoв мы публикуем пoдрoбную метеoинфoрмацию в детальнoм прoфессиoнальнoм фoрмате.

Характеристики температуры и влажнoсти вoздуха измеряются на высoте 2 м в тени вдали oт зданий и деревьев.
Скoрoсть ветра измеряется на высoте 10 м (на урoвне рoста челoвека скoрoсть ветра ниже в 1.5-2 раза). Если метеoстанция нахoдится в гoрoде или в лесу, тo скoрoсть ветра занижена на 2-4 м/с пo сравнению с oткрытым местoм. Скoрoсть ветра над акватoриями крупных рек и oзёр, а также на вершинах хoлмoв на 2-5 м/с выше, чем в oбычных услoвиях.
Атмoсфернoе давление в разных тoчках местнoсти мoжет значительнo oтличаться oт давления на метеoстанции, в зависимoсти oт услoвий рельефа (при пoдъёме на 10 м давление пoнижается примернo на 1 мм рт.ст.).